Waarnemingen

Advertentie
Mijn weer
Avignon, Frankrijk (7563): temperatuur & dauwpunt: 16.11.2017 08:00:00 - 22.11.2017 08:00:00 (CET)Avignon, Frankrijk (7563): temperatuur 5cm: 16.11.2017 08:00:00 - 22.11.2017 08:00:00 (CET)Avignon, Frankrijk (7563): windsnelheid & windstoten: 16.11.2017 08:00:00 - 22.11.2017 08:00:00 (CET)Avignon, Frankrijk (7563): windrichting: 16.11.2017 08:00:00 - 22.11.2017 08:00:00 (CET)Avignon, Frankrijk (7563): luchtdruk: 16.11.2017 08:00:00 - 22.11.2017 08:00:00 (CET)Avignon, Frankrijk (7563): zicht: 16.11.2017 08:00:00 - 22.11.2017 08:00:00 (CET)Avignon, Frankrijk (7563): neerslag: 16.11.2017 08:00:00 - 22.11.2017 08:00:00 (CET)
Datum & Tijd tt [°C] td [°C] tt 5cm [°C] ff [km/u] ff [kn] fx [km/u] fx [kn] dd ppp [hPa] vv [km] rr [mm]
22.11.2017 08:00:00 1,3 0,3 -2,6 4 2 6 3 - 1019,6 10 0,0
22.11.2017 07:00:00 1,1 -0,2 -2,0 0 0 9 5 N 1019,5 11 0,0
22.11.2017 06:00:00 2,3 0,8 -0,3 5 3 10 5 N 1019,5 10 0,0
22.11.2017 05:00:00 4,8 2,7 0,6 8 4 11 6 O 1019,7 10 0,0
22.11.2017 04:00:00 3,3 1,5 -0,3 4 2 6 4 - 1019,7 10 0,0
22.11.2017 03:00:00 3,6 1,5 -0,1 5 3 8 4 - 1020,1 10 0,0
22.11.2017 02:00:00 4,3 1,8 1,2 4 2 7 4 NNW 1019,9 10 0,0
22.11.2017 01:00:00 5,9 1,6 1,8 4 2 10 5 Z 1020,0 10 0,0
22.11.2017 00:00:00 6,8 1,7 3,8 8 4 21 12 ZZO 1019,7 10 0,0
21.11.2017 23:00:00 11,2 2,7 7,2 11 6 23 13 ZO 1019,5 10 0,0
21.11.2017 22:00:00 9,9 2,5 4,0 15 8 24 13 ZO 1019,7 10 0,0
21.11.2017 21:00:00 7,6 3,3 2,6 2 1 12 6 - 1019,7 10 0,0
21.11.2017 20:00:00 6,6 2,5 1,6 8 4 8 5 O 1019,6 10 0,0
21.11.2017 19:00:00 6,5 2,0 3,6 5 3 8 4 ZZO 1019,4 10 0,0
21.11.2017 18:00:00 8,4 1,8 4,7 5 3 7 4 ZZO 1018,9 10 0,0
21.11.2017 17:00:00 14,6 2,5 11,6 5 3 14 8 - 1018,2 10 0,0
21.11.2017 16:00:00 17,8 2,9 21,6 8 4 21 11 NW 1018,0 10 0,0
21.11.2017 15:00:00 18,0 2,7 22,2 15 8 23 12 NNW 1018,2 10 0,0
21.11.2017 14:00:00 18,1 2,8 22,4 13 7 21 12 NNW 1019,0 10 0,0
21.11.2017 13:00:00 16,1 2,5 20,1 13 7 23 12 NNW 1019,7 10 0,0
21.11.2017 12:00:00 13,5 2,4 15,2 15 8 21 12 NNW 1020,8 10 0,0
21.11.2017 11:00:00 10,5 2,3 13,7 8 4 14 8 NW 1021,7 10 0,0
21.11.2017 10:00:00 7,9 1,9 7,2 2 1 8 4 - 1021,4 10 0,0
21.11.2017 09:00:00 3,0 1,0 -2,1 5 3 11 6 Z 1021,4 10 0,0
21.11.2017 08:00:00 -1,0 -2,3 -3,5 0 0 7 4 N 1020,9 10 0,0
21.11.2017 07:00:00 -1,6 -2,9 -3,4 5 3 8 4 ZZO 1020,6 11 0,0
21.11.2017 06:00:00 -0,8 -2,2 -2,2 5 3 9 5 ZZO 1020,6 10 0,0
21.11.2017 05:00:00 0,2 -1,7 -2,0 0 0 5 3 N 1020,6 10 0,0
21.11.2017 04:00:00 2,4 -0,4 -2,6 0 0 7 4 N 1020,7 10 0,0
21.11.2017 03:00:00 5,5 0,8 2,5 4 2 15 8 - 1021,1 10 0,0
21.11.2017 02:00:00 6,1 1,0 3,9 9 5 21 11 N 1020,9 10 0,0
21.11.2017 01:00:00 5,8 0,7 3,4 11 6 18 10 N 1021,2 10 0,0
21.11.2017 00:00:00 6,6 0,5 4,3 11 6 17 9 NNW 1021,3 10 0,0
20.11.2017 23:00:00 7,5 0,0 5,3 9 5 19 11 NNW 1021,1 10 0,0
20.11.2017 22:00:00 8,6 0,1 6,9 13 7 33 18 NNW 1021,4 10 0,0
20.11.2017 21:00:00 9,1 0,0 7,4 21 11 27 14 NNW 1021,3 10 0,0
20.11.2017 20:00:00 9,8 -1,0 8,6 21 11 41 22 NNW 1021,3 10 0,0
20.11.2017 19:00:00 10,6 -2,8 9,3 28 15 46 25 N 1020,9 10 0,0
20.11.2017 18:00:00 11,1 -3,8 9,9 24 13 44 24 N 1020,7 10 0,0
20.11.2017 17:00:00 12,4 -3,4 11,6 18 10 39 21 N 1020,5 10 0,0
20.11.2017 16:00:00 14,2 -4,1 16,7 18 10 32 18 N 1020,5 10 0,0
20.11.2017 15:00:00 14,6 -1,9 18,5 18 10 31 17 N 1020,7 10 0,0
20.11.2017 14:00:00 13,3 0,3 17,0 16 9 37 20 N 1021,6 10 0,0
20.11.2017 13:00:00 12,8 1,1 16,0 26 14 39 21 N 1022,0 10 0,0
20.11.2017 12:00:00 11,6 0,9 13,9 28 15 46 25 N 1022,7 10 0,0
20.11.2017 11:00:00 10,2 1,6 11,9 28 15 58 31 N 1022,9 10 0,0
20.11.2017 10:00:00 9,0 1,6 9,8 31 17 59 32 N 1022,5 10 0,0
20.11.2017 09:00:00 7,8 1,4 6,5 37 20 63 34 N 1021,7 10 0,0
20.11.2017 08:00:00 7,0 1,5 6,1 44 24 69 37 N 1020,8 10 0,0
20.11.2017 07:00:00 7,3 1,1 6,4 41 22 63 34 N 1020,7 10 0,0
20.11.2017 06:00:00 7,4 1,7 6,4 31 17 56 30 N 1021,1 10 0,0
20.11.2017 05:00:00 7,7 1,7 6,7 26 14 59 32 N 1020,8 10 0,0
20.11.2017 04:00:00 8,1 2,1 7,0 31 17 50 27 N 1020,6 10 0,0
20.11.2017 03:00:00 8,4 2,2 7,3 26 14 67 36 N 1021,0 10 0,0
20.11.2017 02:00:00 8,9 2,7 7,4 39 21 66 36 N 1020,0 10 0,0
20.11.2017 01:00:00 8,4 3,8 7,3 24 13 63 34 N 1021,3 10 0,0
20.11.2017 00:00:00 9,1 3,9 8,4 37 20 70 38 N 1020,4 10 0,0
19.11.2017 23:00:00 9,5 4,1 8,4 42 23 62 33 N 1020,2 10 0,0
19.11.2017 22:00:00 9,4 4,2 8,5 34 18 64 35 NNW 1020,2 10 0,0
19.11.2017 21:00:00 10,1 4,5 8,9 35 19 56 31 NNW 1019,8 10 0,0
19.11.2017 20:00:00 10,1 4,5 8,9 28 15 56 30 NNW 1020,0 10 0,0
19.11.2017 19:00:00 10,5 4,2 9,5 32 17 65 35 N 1019,3 60 0,0
19.11.2017 18:00:00 11,0 4,2 10,0 34 18 68 37 N 1019,0 10 0,0
19.11.2017 17:00:00 11,9 4,1 11,7 42 23 67 36 N 1018,6 10 0,0
19.11.2017 16:00:00 13,2 4,3 15,3 37 20 84 46 NNW 1018,5 10 0,0
19.11.2017 15:00:00 13,8 4,4 16,3 48 26 79 43 N 1017,9 10 0,0
19.11.2017 14:00:00 14,5 3,9 17,3 44 24 77 41 NNW 1017,9 10 0,0
19.11.2017 13:00:00 13,8 3,5 16,1 44 24 71 39 NNW 1018,3 10 0,0
19.11.2017 12:00:00 12,7 2,5 14,2 34 18 63 34 NNW 1018,3 10 0,0
19.11.2017 11:00:00 10,8 1,1 11,9 34 18 63 34 NNW 1019,3 10 0,0
19.11.2017 10:00:00 9,2 0,9 9,2 28 15 58 31 NNW 1019,5 10 0,0
19.11.2017 09:00:00 7,4 0,1 5,7 34 18 63 34 N 1019,6 10 0,0
19.11.2017 08:00:00 6,3 -0,2 5,4 35 19 59 32 N 1018,9 10 0,0
19.11.2017 07:00:00 6,2 -0,3 5,1 39 21 65 35 N 1018,7 10 0,0
19.11.2017 06:00:00 6,0 -0,7 4,9 31 17 58 31 NNW 1018,9 10 0,0
19.11.2017 05:00:00 6,1 -0,9 5,0 31 17 60 33 N 1019,0 10 0,0
19.11.2017 04:00:00 6,0 -0,7 5,1 28 15 65 35 N 1018,8 10 0,0
19.11.2017 03:00:00 6,2 -0,8 5,3 39 21 66 36 N 1018,7 10 0,0
19.11.2017 02:00:00 6,1 -0,6 4,9 24 13 52 28 N 1019,5 10 0,0
19.11.2017 01:00:00 6,3 -0,5 5,2 31 17 59 32 N 1020,0 10 0,0
19.11.2017 00:00:00 6,4 -0,1 5,4 34 18 54 29 N 1019,9 10 0,0
18.11.2017 23:00:00 6,4 -0,1 5,4 34 18 48 26 N 1019,9 10 0,0
18.11.2017 22:00:00 6,8 0,0 5,6 26 14 54 29 NNW 1020,7 10 0,0
18.11.2017 21:00:00 7,1 0,1 6,2 31 17 56 31 N 1020,1 10 0,0
18.11.2017 20:00:00 7,6 0,3 6,6 34 18 63 34 N 1020,0 10 0,0
18.11.2017 19:00:00 7,8 1,2 7,0 37 20 59 32 N 1020,5 10 0,0
18.11.2017 18:00:00 8,2 1,3 7,3 35 19 70 38 N 1019,8 10 0,0
18.11.2017 17:00:00 9,1 1,3 8,9 37 20 61 33 N 1019,0 10 0,0
18.11.2017 16:00:00 10,3 1,6 12,5 31 17 68 37 N 1019,6 10 0,0
18.11.2017 15:00:00 10,8 1,9 13,7 44 24 71 38 N 1019,0 10 0,0
18.11.2017 14:00:00 11,3 2,6 14,5 37 20 63 34 N 1019,3 10 0,0
18.11.2017 13:00:00 11,5 3,0 14,1 31 17 60 32 N 1019,9 10 0,0
18.11.2017 12:00:00 10,9 3,2 13,4 35 19 57 31 N 1020,2 10 0,0
18.11.2017 11:00:00 10,2 3,2 11,7 37 20 61 33 N 1020,3 10 0,0
18.11.2017 10:00:00 9,3 2,8 10,1 34 18 63 34 N 1020,3 10 0,0
18.11.2017 09:00:00 8,2 2,6 7,0 37 20 58 32 N 1020,0 10 0,0
18.11.2017 08:00:00 7,2 2,7 6,1 34 18 56 30 N 1019,9 10 0,0
18.11.2017 07:00:00 7,0 2,3 5,8 31 17 59 32 N 1019,3 10 0,0
18.11.2017 06:00:00 6,8 2,5 5,7 28 15 51 27 N 1019,1 26 0,0
18.11.2017 05:00:00 7,0 2,5 6,0 31 17 61 33 N 1019,1 10 0,0
18.11.2017 04:00:00 6,9 2,4 6,0 29 16 56 30 N 1018,8 10 0,0
18.11.2017 03:00:00 7,4 2,5 6,4 29 16 51 27 N 1018,7 10 0,0
18.11.2017 02:00:00 7,5 2,4 6,4 24 13 44 24 N 1018,6 10 0,0
18.11.2017 01:00:00 7,8 2,7 6,8 24 13 63 34 N 1019,2 18 0,0
18.11.2017 00:00:00 7,7 2,8 6,6 26 14 58 31 N 1018,9 10 0,0
17.11.2017 23:00:00 7,8 2,7 6,9 39 21 64 34 N 1018,5 10 0,0
17.11.2017 22:00:00 8,1 2,5 7,1 34 18 64 34 N 1019,0 10 0,0
17.11.2017 21:00:00 8,3 2,3 7,5 34 18 59 32 N 1018,9 10 0,0
17.11.2017 20:00:00 8,7 1,8 7,8 29 16 57 31 N 1019,1 10 0,0
17.11.2017 19:00:00 9,0 1,2 8,1 31 17 59 32 N 1018,5 10 0,0
17.11.2017 18:00:00 9,5 0,4 8,6 29 16 50 27 N 1018,3 10 0,0
17.11.2017 17:00:00 10,5 -0,4 10,3 28 15 48 26 N 1017,6 10 0,0
17.11.2017 16:00:00 12,1 -0,4 14,4 28 15 54 29 N 1017,8 10 0,0
17.11.2017 15:00:00 12,3 -0,6 15,5 35 19 49 27 N 1018,0 10 0,0
17.11.2017 14:00:00 12,2 0,0 15,3 34 18 50 27 N 1018,7 10 0,0
17.11.2017 13:00:00 11,2 0,3 10,8 29 16 47 26 N 1019,1 19 0,0
17.11.2017 12:00:00 7,7 0,2 8,8 29 16 45 24 N 1020,0 10 0,0
17.11.2017 11:00:00 7,8 0,3 7,6 24 13 45 25 N 1020,3 10 0,0
17.11.2017 10:00:00 5,8 -0,1 5,2 31 17 49 26 N 1020,7 10 0,0
17.11.2017 09:00:00 4,5 -0,3 4,0 24 13 50 27 N 1020,8 10 0,0
17.11.2017 08:00:00 3,8 -0,4 2,9 21 11 45 25 N 1020,4 10 0,0
17.11.2017 07:00:00 3,8 -0,6 2,8 28 15 49 26 N 1019,8 10 0,0
17.11.2017 06:00:00 3,9 -0,5 2,6 26 14 48 26 N 1020,0 10 0,0
17.11.2017 05:00:00 4,1 -0,7 3,1 28 15 51 27 N 1019,8 10 0,0
17.11.2017 04:00:00 4,5 -0,7 3,6 24 13 43 23 N 1019,6 10 0,0
17.11.2017 03:00:00 4,8 -0,4 4,0 26 14 54 29 N 1019,8 10 0,0
17.11.2017 02:00:00 4,9 -0,3 4,1 34 18 57 31 N 1019,9 10 0,0
17.11.2017 01:00:00 5,1 -0,1 4,3 37 20 55 30 N 1019,7 10 0,0
17.11.2017 00:00:00 5,2 -0,6 4,1 24 13 49 26 N 1020,1 10 0,0
16.11.2017 23:00:00 5,6 -0,7 4,5 31 17 46 25 N 1019,9 10 0,0
16.11.2017 22:00:00 6,0 -1,2 3,5 29 16 48 26 N 1019,9 10 0,0
16.11.2017 21:00:00 5,3 -0,1 4,0 18 10 28 15 NNW 1020,1 10 0,0
16.11.2017 20:00:00 6,2 -0,1 5,0 16 9 29 16 NNW 1019,9 10 0,0
16.11.2017 19:00:00 7,5 0,5 5,8 18 10 29 16 NW 1019,5 10 0,0
16.11.2017 18:00:00 8,0 0,7 5,3 11 6 19 10 NNW 1019,4 10 0,0
16.11.2017 17:00:00 9,2 0,6 7,9 9 5 22 12 NW 1019,5 10 0,0
16.11.2017 16:00:00 12,4 1,1 15,9 13 7 23 13 NW 1019,4 10 0,0
16.11.2017 15:00:00 12,9 0,9 17,5 15 8 22 12 NW 1019,5 28 0,0
16.11.2017 14:00:00 13,1 1,1 18,4 13 7 22 12 NNW 1020,0 10 0,0
16.11.2017 13:00:00 12,1 1,1 16,9 13 7 21 12 NNW 1020,7 10 0,0
16.11.2017 12:00:00 10,1 0,9 13,9 11 6 20 11 NNW 1021,6 10 0,0
16.11.2017 11:00:00 7,6 0,6 11,4 11 6 17 9 N 1022,1 10 0,0
16.11.2017 10:00:00 5,7 0,6 6,6 8 4 12 6 N 1021,9 10 0,0
16.11.2017 09:00:00 1,6 0,3 -2,4 4 2 9 5 - 1021,7 6 0,0
16.11.2017 08:00:00 -2,9 -4,0 -6,1 5 3 6 4 Z 1021,5 7 0,0

tt = temperatuur
td = dauwpunt
tt 5cm = temperatuur 5cm
ff = windsnelheid
fx = windstoten
dd = windrichting
ppp = luchtdruk
vv = zicht
rr = neerslag

Weerstations in de omgeving